This demonstration page uses our WeatherBlox Daily Observations layout. Learn more.

Left ArrowRight Arrow

44.8408, -93.29828

Hourly Observations for March 20, 2015

Temp ( °F °C ) Dew Point ( °F °C ) Humidity (%) Winds ( mph kmh ) Pressure ( in mb ) Visibility ( mi km ) Precip ( " mm )
12:53 am 00:53 Cloudy 44 6.7 34 1.1 68 68 SSW 9 15 29.97 1015 10 16 0.00 0.00
1:53 am 01:53 Partly Cloudy 41 5 33 0.6 73 73 WSW 10 17 29.98 1015 10 16 0.00 0.00
2:53 am 02:53 Mostly Clear 38 3.3 32 0 79 79 WSW 9 15 29.99 1016 10 16 0.00 0.00
3:53 am 03:53 Mostly Cloudy 38 3.3 32 0 79 79 W 8 13 29.99 1016 10 16 0.00 0.00
4:53 am 04:53 Mostly Clear 36 2.2 31 -0.6 82 82 W 9 15 30.00 1016 9 14 0.00 0.00
5:53 am 05:53 Clear 35 1.7 31 -0.6 85 85 W 7 11 30.00 1016 8 13 0.00 0.00
6:53 am 06:53 Mostly Clear 34 1.1 30 -1.1 85 85 WSW 5 7 30.02 1017 8 13 0.00 0.00
7:53 am 07:53 Partly Cloudy 33 0.6 30 -1.1 89 89 Calm 30.03 1017 10 16 0.00 0.00
8:53 am 08:53 Mostly Cloudy 35 1.7 31 -0.6 85 85 WSW 6 9 30.04 1017 10 16 0.00 0.00
9:53 am 09:53 Cloudy 37 2.8 31 -0.6 79 79 WSW 6 9 30.05 1018 10 16 0.00 0.00
10:53 am 10:53 Mostly Cloudy 40 4.4 32 0 73 73 WSW 6 9 30.06 1018 10 16 0.00 0.00
11:53 am 11:53 Mostly Cloudy 45 7.2 31 -0.6 58 58 WSW 9 15 30.04 1017 10 16 0.00 0.00
12:53 pm 12:53 Cloudy 47 8.3 32 0 56 56 W 12 19 30.03 1017 10 16 0.00 0.00
1:53 pm 13:53 Cloudy 49 9.4 32 0 52 52 S 6 9 30.00 1016 9 14 0.00 0.03
2:53 pm 14:53 Mostly Cloudy 53 11.7 33 0.6 47 47 VRB 3 6 29.98 1015 8 13 0.00 0.00
3:53 pm 15:53 Mostly Cloudy 54 12.2 33 0.6 45 45 E 7 11 29.94 1014 9 14 0.00 0.00
4:53 pm 16:53 Mostly Cloudy 55 12.8 32 0 42 42 ESE 3 6 29.92 1013 9 14 0.00 0.00
5:53 pm 17:53 Cloudy 54 12.2 32 0 43 43 E 7 11 29.91 1013 9 14 0.00 0.00
6:53 pm 18:53 Mostly Cloudy 53 11.7 33 0.6 47 47 E 12 19 29.88 1012 9 14 0.00 0.00
7:53 pm 19:53 Mostly Cloudy 51 10.6 33 0.6 50 50 ENE 10 17 29.88 1012 10 16 0.00 0.00
8:30 pm 20:30 Mostly Cloudy 48 9 34 1 58 58 NNE 22 35 29.94 1014 9 14 0.00 0.00
8:53 pm 20:53 Mostly Cloudy 46 7.8 36 2.2 68 68 N 18 30 29.94 1014 9 14 0.00 0.00
9:53 pm 21:53 Mostly Clear 43 6.1 37 2.8 80 80 N 10 17 30.00 1016 10 16 0.00 0.00
10:36 pm 22:36 Mostly Cloudy 43 6.1 38 3.3 82 82 N 14 22 30.00 1016 10 16 0.00 0.00
10:53 pm 22:53 Mostly Cloudy 43 6.1 38 3.3 82 82 NNW 14 22 30.04 1017 10 16 0.00 0.00
11:21 pm 23:21 Mostly Cloudy 43 6.1 37 2.8 80 80 NNW 13 20 30.03 1017 10 16 0.00 0.00
11:53 pm 23:53 Mostly Clear 41 5 35 1.7 79 79 NNW 15 24 30.07 1018 10 16 0.00 0.00

Powered by AerisWeather